Voltar ao catálogo

WESTFORD NEEDLES

AtivoPO
NORAD 19891·DEBRIS·🇺🇸 United States

Lançado May 9, 1963 de Vandenberg Space Force Base

Loading…

Próximas Passagens (próximas 24 horas)

TLE

EnvelhecendoSource: Space-Track

Época: Sep 8, 2026, 05:06 UTC

1 19891U 63014ET  26251.21284594  .00000021  00000-0  79871-2 0  9990
2 19891  87.3009 147.3765 0286240 171.0625 348.8018  8.66885880397158

Acompanhe WESTFORD NEEDLES em tempo real com AllMySat

Download on the App Store